Flag for Brazil Weather past 2 weeks in Maceió, Alagoas, Brazil

Now
72 °F

Passing clouds.


Feels Like: 67 °F
Forecast: 70 / 83 °F
Wind: 3 mph from Northeast

Location: Maceio Aeroporto

Current Time: Sep 2, 2014 at 2:18:14 AM

Latest Report: Sep 2, 2014 at 2:00 AM


Visibility: N/A

Pressure: 29.98 "Hg

Humidity: 94%

Dew point: 70 °F

Location of MaceióLocation

Historic Weather in Maceió — Graph

°F

Maceió temperature yesterday

Maximum temperature yesterday: 82 °F (at 12:00 PM)
Minimum temperature yesterday: 66 °F (at 3:00 AM)
Average temperature yesterday: 74 °F

Past Weeks' High & Low Weather Summary

 TemperatureHumidityPressure
High84 °F (Aug 31, 11:00 AM)100% (Aug 18, 5:00 AM)30.12 "Hg (Aug 18, 5:00 AM)
Low63 °F (Aug 23, 11:00 PM)51% (Aug 18, 2:00 PM)29.95 "Hg (Aug 27, 3:00 PM)
Average73 °F84%30.05 "Hg
* Reported Aug 18 1:00 AM — Sep 2 1:00 AM, Maceió, Weather by CustomWeather, © 2014

Note: Actual official high and low records may vary slightly from our data, if they occured in-between our weather recording intervals... More about our weather records

Advertising

Maceió weather history for previous 24 hours

 ConditionsComfort  
Time TempWeatherWind HumidityBarometerVisibility
1:00 AM
Sep 2
72 °FPassing clouds.2 mph94%30.01 "HgN/A
12:00 AM73 °FPassing clouds.2 mph94%30.01 "HgN/A
11:00 PM
Sep 1
72 °FPassing clouds.5 mph94%30.04 "HgN/A
10:00 PM73 °FPassing clouds.5 mph89%30.04 "HgN/A
9:00 PM73 °FPassing clouds.5 mph89%30.04 "HgN/A
8:00 PM75 °FPassing clouds.3 mph83%30.04 "HgN/A
7:00 PM75 °FPassing clouds.3 mph83%30.01 "HgN/A
6:00 PM75 °FPassing clouds.3 mph89%30.01 "HgN/A
5:00 PM77 °FPartly sunny.5 mph79%30.01 "HgN/A
4:00 PM79 °FPartly sunny.5 mph74%30.01 "HgN/A
3:00 PM79 °FPartly sunny.7 mph70%30.01 "HgN/A
2:00 PM81 °FBroken clouds.12 mph66%30.01 "HgN/A
1:00 PM79 °FBroken clouds.10 mph74%30.04 "HgN/A
12:00 PM82 °FBroken clouds.8 mph58%30.07 "HgN/A
11:00 AM81 °FBroken clouds.8 mph62%30.07 "HgN/A
10:00 AM81 °FScattered clouds.9 mph58%30.09 "HgN/A
9:00 AM81 °FScattered clouds.12 mph58%30.09 "HgN/A
8:00 AM77 °FPassing clouds.2 mph79%30.09 "HgN/A
7:00 AM72 °FScattered clouds.3 mph94%30.07 "HgN/A
6:00 AM66 °FScattered clouds.2 mph100%30.07 "HgN/A
5:00 AM66 °FPassing clouds.3 mph100%30.07 "HgN/A
4:00 AM66 °FPassing clouds.2 mph100%30.04 "HgN/A
3:00 AM66 °FPassing clouds.2 mph100%30.04 "HgN/A
2:00 AM68 °FPassing clouds.2 mph100%30.04 "HgN/A
Weather by CustomWeather, © 2014

See weather overviewHow to use our weather pages